Flag for Czech Republic Weather past 2 weeks in Prague, Czech Republic

Now
48 °F

Scattered clouds.


Feels Like: 44 °F
Forecast: 36 / 48 °F
Wind: 10 mph from West

Location: Prague Ruzyne Airport

Current Time: Mar 27, 2015 at 1:16:20 PM

Latest Report: Mar 27, 2015 at 12:30 PM


Visibility: N/A

Pressure: 29.95 "Hg

Humidity: 66%

Dew point: 37 °F

Location of PragueLocation

Historic Weather in Prague — Graph

°F

Prague temperature yesterday

Maximum temperature yesterday: 57 °F (at 12:30 PM)
Minimum temperature yesterday: 45 °F (at 10:00 PM)
Average temperature yesterday: 50 °F

Past Weeks' High & Low Weather Summary

 TemperatureHumidityPressure
High61 °F (Mar 25, 2:00 PM)100% (Mar 14, 6:00 AM)30.39 "Hg (Mar 14, 6:00 AM)
Low25 °F (Mar 23, 5:00 AM)24% (Mar 19, 3:30 PM)29.62 "Hg (Mar 26, 2:00 AM)
Average42 °F70%30.11 "Hg
* Reported Mar 12 12:00 Noon — Mar 27 12:00 Noon, Prague, Weather by CustomWeather, © 2015

Note: Actual official high and low records may vary slightly from our data, if they occured in-between our weather recording intervals... More about our weather records

Advertising

Prague weather history for previous 24 hours

 ConditionsComfort  
Time TempWeatherWind HumidityBarometerVisibility
12:00 PM
Fri, Mar 27
48 °FScattered clouds.12 mph66%29.92 "HgN/A
11:30 AM46 °FScattered clouds.13 mph66%29.95 "HgN/A
11:00 AM46 °FScattered clouds.14 mph76%29.92 "HgN/A
10:30 AM45 °FBroken clouds.15 mph81%29.92 "HgN/A
10:00 AM43 °FPartly sunny.15 mph81%29.92 "HgN/A
9:30 AM43 °FBroken clouds.13 mph81%29.92 "HgN/A
9:00 AM43 °FCloudy.13 mph81%29.92 "HgN/A
8:30 AM41 °FPartly sunny.13 mph93%29.89 "Hg5 mi
8:00 AM41 °FPartly sunny.13 mph87%29.89 "Hg4 mi
7:30 AM41 °FPartly sunny.14 mph87%29.89 "Hg4 mi
7:00 AM41 °FFog.12 mph87%29.86 "Hg3 mi
6:30 AM39 °FFog.9 mph93%29.86 "Hg3 mi
6:00 AM39 °FFog.8 mph93%29.83 "Hg3 mi
5:30 AM39 °FLight rain. Mostly cloudy.7 mph93%29.83 "Hg4 mi
5:00 AM39 °FLight rain. Mostly cloudy.5 mph93%29.83 "Hg4 mi
3:30 AM39 °FLight rain. Overcast.8 mph87%29.80 "Hg5 mi
3:00 AM39 °FLight rain. Mostly cloudy.12 mph87%29.80 "Hg5 mi
2:30 AM41 °FLight rain. Mostly cloudy.13 mph87%29.80 "Hg5 mi
2:00 AM41 °FLight rain. Mostly cloudy.13 mph87%29.80 "Hg4 mi
1:30 AM43 °FLight rain. Passing clouds.13 mph87%29.80 "Hg4 mi
1:00 AM43 °FLight rain. Overcast.15 mph87%29.77 "Hg4 mi
12:30 AM43 °FLight rain. Fog.14 mph93%29.77 "Hg3 mi
12:00 AM43 °FLight rain. Fog.13 mph93%29.77 "Hg3 mi
11:30 PM
Thu, Mar 26
45 °FLight rain. Fog.13 mph87%29.77 "Hg2 mi
11:00 PM45 °FLight rain. Fog.13 mph93%29.77 "Hg2 mi
10:30 PM45 °FLight rain. Fog.14 mph93%29.77 "Hg2 mi
10:00 PM45 °FLight rain. Fog.9 mph93%29.77 "Hg2 mi
9:30 PM46 °FLight rain. Fog.12 mph87%29.77 "Hg2 mi
9:00 PM46 °FLight rain. Fog.10 mph87%29.77 "Hg2 mi
8:30 PM46 °FLight rain. Fog.10 mph93%29.77 "Hg2 mi
8:00 PM46 °FLight rain. Fog.3 mph87%29.74 "Hg3 mi
7:30 PM48 °FLight rain. Fog.2 mph94%29.74 "Hg3 mi
7:00 PM48 °FLight rain. Fog.5 mph87%29.74 "Hg3 mi
6:30 PM48 °FLight rain. Fog.7 mph87%29.74 "Hg3 mi
6:00 PM48 °FLight rain. Fog.7 mph87%29.74 "Hg3 mi
5:30 PM48 °FLight rain. Fog.10 mph87%29.71 "Hg3 mi
5:00 PM50 °FLight rain. Mostly cloudy.9 mph76%29.71 "Hg4 mi
4:30 PM52 °FLight rain. More clouds than sun.9 mph77%29.71 "Hg4 mi
4:00 PM54 °FOvercast.9 mph67%29.71 "HgN/A
3:30 PM54 °FPartly sunny.5 mph67%29.71 "HgN/A
3:00 PM55 °FBroken clouds.2 mph63%29.71 "HgN/A
2:30 PM54 °FBroken clouds.2 mph72%29.71 "HgN/A
2:00 PM54 °FPartly sunny.5 mph72%29.71 "HgN/A
1:30 PM55 °FPartly sunny.6 mph59%29.68 "HgN/A
1:00 PM57 °FPartly sunny.7 mph55%29.68 "HgN/A
Weather by CustomWeather, © 2015

See weather overviewHow to use our weather pages